Location: Shepherdstown, WV
(39.4326°N, 77.8042°W)
Time: 09:45:07
(UTC-04:00)

Tiangong - Pass Details

Date: 28 June 2021
Orbit: 374 x 386 km, 41.5° (Epoch: 25 July)

Event Time Altitude Azimuth Distance (km) Brightness Sun altitude
Exits shadow 04:49:10 - 284° (WNW) 1,974 4.3 -9.8°
Reaches altitude 10° 04:50:36 10° 283° (WNW) 1,385 3.5 -9.6°
Maximum altitude 04:53:43 71° 199° (SSW) 402 1.0 -9.1°
Drops below altitude 10° 04:56:50 10° 114° (ESE) 1,389 4.2 -8.6°
Sets 04:58:54 0° 113° (ESE) 2,242 5.3 -8.3°
